This is the latest recevied weather packets stored in our database for station/object DL3MEB-6. If no packets are shown the sender has not sent any weather packets the latest 10 day(s).
| Time | Temp. | Humidity | Pressure | Rain* | Wind** | Luminosity | Snow |
|---|---|---|---|---|---|---|---|
| 1787988104 | 16.11° C | 88% | 1017.5 hPa | 0 mm | - | - | - |
| 1787987201 | 15° C | 92% | 1017.5 hPa | 0 mm | - | - | - |
| 1787986287 | 14.44° C | 96% | 1017.4 hPa | 0 mm | - | - | - |
| 1787985380 | 14.44° C | 98% | 1017.3 hPa | 0 mm | - | - | - |
| 1787984528 | 13.89° C | 98% | 1017.2 hPa | 0 mm | - | - | - |
| 1787984469 | 13.89° C | 98% | 1017.2 hPa | 0 mm | - | - | - |
| 1787983570 | 13.33° C | 98% | 1017 hPa | 0 mm | - | - | - |
| 1787982668 | 13.33° C | 98% | 1016.9 hPa | 0 mm | - | - | - |
| 1787981766 | 12.78° C | 97% | 1016.9 hPa | 0 mm | - | - | - |
| 1787980858 | 12.22° C | 96% | 1016.9 hPa | 0 mm | - | - | - |
| 1787979958 | 12.22° C | 96% | 1016.7 hPa | 0 mm | - | - | - |
| 1787979050 | 12.22° C | 96% | 1016.5 hPa | 0 mm | - | - | - |
| 1787978143 | 12.78° C | 95% | 1016.5 hPa | 0 mm | - | - | - |
| 1787977237 | 12.78° C | 95% | 1016.5 hPa | 0 mm | - | - | - |
| 1787976328 | 12.78° C | 95% | 1016.3 hPa | 0 mm | - | - | - |
| 1787974518 | 13.33° C | 95% | 1016.3 hPa | 0 mm | - | - | - |
| 1787973610 | 13.33° C | 95% | 1016.3 hPa | 0 mm | - | - | - |
| 1787972706 | 13.89° C | 95% | 1016.4 hPa | 0 mm | - | - | - |
| 1787971800 | 13.89° C | 94% | 1016.6 hPa | 0 mm | - | - | - |
| 1787970895 | 13.89° C | 94% | 1016.5 hPa | 0 mm | - | - | - |
| 1787969987 | 13.89° C | 94% | 1016.6 hPa | 0 mm | - | - | - |
| 1787969079 | 13.89° C | 94% | 1016.3 hPa | 0 mm | - | - | - |
| 1787968177 | 14.44° C | 93% | 1016.2 hPa | 0 mm | - | - | - |
| 1787967272 | 14.44° C | 93% | 1016.1 hPa | 0 mm | - | - | - |
| 1787966363 | 14.44° C | 92% | 1016.2 hPa | 0 mm | - | - | - |
* Rain latest hour (hover to see other rain measurements)
** Current wind speed in m/s (hover to see current wind gust speed)